| time (UTC) | temp F | wind direction | speed MPH | gust MPH | rain 1hr in | rain 24hr in | rain mn in | humidity % | barometer mb |
| 20260506023045 | 55 | 233 | 0.0 | 2.0 | 0.00 | 0.00 | 0.00 | 81 | 1011.8 |
| 20260506021545 | 55 | 276 | 0.0 | 2.0 | 0.00 | 0.00 | 0.00 | 82 | 1011.6 |
| 20260506020042 | 55 | 308 | 0.0 | 0.0 | 0.00 | 0.00 | 0.00 | 81 | 1011.4 |
| 20260506014549 | 56 | 308 | 0.0 | 3.0 | 0.00 | 0.00 | 0.00 | 81 | 1011.5 |
| 20260506011638 | 56 | 300 | 2.0 | 6.0 | 0.00 | 0.00 | 0.00 | 81 | 1011.5 |
| 20260506010037 | 56 | 293 | 1.0 | 5.0 | 0.00 | 0.00 | 0.00 | 80 | 1011.6 |
| 20260506004541 | 56 | 257 | 0.0 | 4.0 | 0.00 | 0.00 | 0.00 | 80 | 1011.5 |
| 20260506003034 | 57 | 302 | 0.0 | 5.0 | 0.00 | 0.00 | 0.00 | 79 | 1011.7 |
| 20260506001540 | 57 | 243 | 0.0 | 3.0 | 0.00 | 0.00 | 0.00 | 79 | 1011.8 |
| 20260506000039 | 58 | 281 | 1.0 | 4.0 | 0.00 | 0.00 | 0.00 | 77 | 1011.7 |
| 20260505234527 | 59 | 304 | 3.0 | 6.0 | 0.00 | 0.00 | 0.00 | 76 | 1011.8 |
| 20260505233025 | 59 | 299 | 3.0 | 7.0 | 0.00 | 0.00 | 0.00 | 76 | 1011.7 |
| 20260505231525 | 59 | 34 | 2.0 | 6.0 | 0.00 | 0.00 | 0.00 | 76 | 1011.5 |
| 20260505230022 | 60 | 283 | 1.0 | 7.0 | 0.00 | 0.00 | 0.00 | 76 | 1011.5 |
| 20260505224532 | 60 | 311 | 2.0 | 7.0 | 0.00 | 0.00 | 0.00 | 75 | 1011.6 |
| 20260505223018 | 60 | 311 | 3.0 | 9.0 | 0.00 | 0.00 | 0.00 | 75 | 1011.8 |
| 20260505221515 | 60 | 304 | 3.0 | 7.0 | 0.00 | 0.00 | 0.00 | 73 | 1011.9 |
| 20260505220025 | 60 | 308 | 3.0 | 7.0 | 0.00 | 0.00 | 0.00 | 73 | 1012.2 |
| 20260505214516 | 61 | 301 | 4.0 | 9.0 | 0.00 | 0.00 | 0.00 | 71 | 1012.2 |
| 20260505213010 | 61 | 298 | 2.0 | 5.0 | 0.00 | 0.00 | 0.00 | 69 | 1012.2 |
| 20260505211510 | 61 | 285 | 1.0 | 5.0 | 0.00 | 0.00 | 0.00 | 69 | 1012.0 |
| 20260505210009 | 61 | 299 | 0.0 | 4.0 | 0.00 | 0.00 | 0.00 | 69 | 1011.7 |
| 20260505204515 | 61 | 313 | 2.0 | 4.0 | 0.00 | 0.08 | 0.00 | 70 | 1011.7 |
| 20260505203007 | 61 | 277 | 0.0 | 5.0 | 0.00 | 0.08 | 0.00 | 72 | 1011.7 |
| 20260505201507 | 60 | 242 | 2.0 | 6.0 | 0.00 | 0.08 | 0.00 | 73 | 1011.7 |
| 20260505200009 | 61 | 310 | 0.0 | 4.0 | 0.00 | 0.08 | 0.00 | 69 | 1011.3 |
| 20260505194507 | 61 | 290 | 2.0 | 9.0 | 0.00 | 0.08 | 0.00 | 69 | 1011.1 |
| 20260505193021 | 61 | 299 | 5.0 | 10.0 | 0.00 | 0.08 | 0.00 | 69 | 1010.8 |
| 20260505191504 | 62 | 323 | 3.0 | 9.0 | 0.00 | 0.08 | 0.00 | 68 | 1010.9 |
| 20260505190003 | 63 | 233 | 1.0 | 3.0 | 0.00 | 0.08 | 0.00 | 69 | 1010.7 |
| 20260505184503 | 64 | 134 | 2.0 | 4.0 | 0.00 | 0.08 | 0.00 | 67 | 1010.4 |
| 20260505183101 | 64 | 285 | 0.0 | 2.0 | 0.00 | 0.08 | 0.00 | 64 | 1010.7 |
| 20260505181602 | 64 | 318 | 2.0 | 5.0 | 0.00 | 0.08 | 0.00 | 64 | 1010.9 |
| 20260505180059 | 64 | 24 | 0.0 | 4.0 | 0.00 | 0.08 | 0.00 | 64 | 1010.9 |
| 20260505174600 | 64 | 20 | 3.0 | 6.0 | 0.00 | 0.08 | 0.00 | 63 | 1011.1 |
| 20260505173100 | 64 | 316 | 0.0 | 6.0 | 0.00 | 0.08 | 0.00 | 63 | 1011.3 |
| 20260505171558 | 64 | 300 | 2.0 | 7.0 | 0.00 | 0.08 | 0.00 | 63 | 1011.4 |
| 20260505170105 | 64 | 63 | 2.0 | 5.0 | 0.00 | 0.08 | 0.00 | 74 | 1011.5 |
| 20260505164555 | 64 | 142 | 2.0 | 3.0 | 0.00 | 0.10 | 0.00 | 78 | 1011.4 |
| 20260505163059 | 64 | 119 | 1.0 | 6.0 | 0.00 | 0.10 | 0.00 | 78 | 1011.1 |
| 20260505161554 | 65 | 141 | 1.0 | 6.0 | 0.00 | 0.10 | 0.00 | 76 | 1011.0 |
| 20260505153105 | 64 | 129 | 3.0 | 6.0 | 0.00 | 0.15 | 0.00 | 73 | 1011.0 |
| 20260505151552 | 65 | 134 | 4.0 | 7.0 | 0.00 | 0.15 | 0.00 | 72 | 1010.9 |
| 20260505150109 | 66 | 142 | 3.0 | 6.0 | 0.00 | 0.15 | 0.00 | 70 | 1010.7 |
| 20260505124535 | 66 | 112 | 3.0 | 6.0 | 0.00 | 0.17 | 0.00 | 73 | 1011.9 |
| 20260505123047 | 66 | 107 | 2.0 | 7.0 | 0.00 | 0.17 | 0.00 | 71 | 1012.0 |
| 20260505121535 | 65 | 121 | 4.0 | 7.0 | 0.00 | 0.17 | 0.00 | 73 | 1012.0 |
| 20260505114541 | 64 | 90 | 2.0 | 7.0 | 0.00 | 0.17 | 0.00 | 72 | 1012.2 |
| 20260505113027 | 65 | 71 | 4.0 | 8.0 | 0.00 | 0.17 | 0.00 | 71 | 1012.0 |
| 20260505111526 | 66 | 81 | 2.0 | 7.0 | 0.00 | 0.17 | 0.00 | 69 | 1012.3 |
| 20260505101521 | 64 | 123 | 2.0 | 5.0 | 0.00 | 0.17 | 0.00 | 70 | 1012.6 |
| 20260505100029 | 65 | 115 | 2.0 | 4.0 | 0.00 | 0.17 | 0.00 | 68 | 1012.7 |
| 20260505094520 | 65 | 131 | 3.0 | 5.0 | 0.00 | 0.17 | 0.00 | 69 | 1012.5 |
| 20260505093017 | 66 | 104 | 5.0 | 7.0 | 0.00 | 0.17 | 0.00 | 68 | 1012.1 |
| 20260505091522 | 64 | 349 | 1.0 | 7.0 | 0.00 | 0.17 | 0.00 | 70 | 1012.1 |
| 20260505090017 | 64 | 17 | 5.0 | 8.0 | 0.00 | 0.17 | 0.00 | 71 | 1012.1 |
| 20260505084514 | 64 | 314 | 3.0 | 7.0 | 0.00 | 0.17 | 0.00 | 68 | 1012.6 |
| 20260505083011 | 64 | 203 | 1.0 | 3.0 | 0.00 | 0.17 | 0.00 | 69 | 1012.6 |
| 20260505081509 | 65 | 142 | 0.0 | 3.0 | 0.00 | 0.17 | 0.00 | 69 | 1012.1 |
| 20260505080004 | 63 | 340 | 1.0 | 6.0 | 0.00 | 0.17 | 0.00 | 72 | 1012.2 |
| 20260505074502 | 62 | 319 | 4.0 | 10.0 | 0.00 | 0.17 | 0.00 | 72 | 1012.3 |
| 20260505073102 | 61 | 311 | 4.0 | 9.0 | 0.00 | 0.17 | 0.00 | 74 | 1012.4 |
| 20260505071558 | 60 | 281 | 2.0 | 6.0 | 0.00 | 0.17 | 0.00 | 77 | 1012.4 |
| 20260505070056 | 58 | 285 | 2.0 | 8.0 | 0.00 | 0.17 | 0.00 | 79 | 1012.3 |
| 20260505064553 | 57 | 288 | 6.0 | 10.0 | 0.00 | 0.17 | 0.00 | 79 | 1012.3 |
| 20260505063058 | 58 | 291 | 1.0 | 6.0 | 0.00 | 0.17 | 0.00 | 79 | 1012.3 |
| 20260505061555 | 57 | 233 | 1.0 | 7.0 | 0.00 | 0.17 | 0.00 | 80 | 1012.4 |
| 20260505060050 | 57 | 314 | 5.0 | 9.0 | 0.00 | 0.17 | 0.00 | 79 | 1012.3 |
| 20260505054550 | 57 | 310 | 6.0 | 12.0 | 0.00 | 0.17 | 0.00 | 79 | 1012.2 |
| 20260505053050 | 56 | 309 | 2.0 | 8.0 | 0.00 | 0.17 | 0.00 | 79 | 1012.0 |
| 20260505051548 | 56 | 306 | 3.0 | 8.0 | 0.00 | 0.17 | 0.00 | 80 | 1012.0 |
| 20260505050120 | 55 | 261 | 0.0 | 4.0 | 0.00 | 0.17 | 0.00 | 81 | 1012.1 |
| 20260505041552 | 56 | 260 | 0.0 | 6.0 | 0.00 | 0.17 | 0.00 | 81 | 1012.3 |
| 20260505040051 | 56 | 250 | 0.0 | 3.0 | 0.00 | 0.17 | 0.00 | 80 | 1012.3 |
| 20260505034540 | 57 | 309 | 4.0 | 7.0 | 0.00 | 0.17 | 0.00 | 79 | 1012.2 |
| 20260505033044 | 57 | 278 | 2.0 | 5.0 | 0.00 | 0.17 | 0.00 | 79 | 1012.2 |
| 20260505031544 | 57 | 294 | 2.0 | 5.0 | 0.00 | 0.17 | 0.00 | 80 | 1012.2 |
| 20260505030040 | 57 | 284 | 2.0 | 6.0 | 0.00 | 0.17 | 0.00 | 80 | 1012.3 |
| 20260505024536 | 57 | 255 | 1.0 | 4.0 | 0.00 | 0.17 | 0.00 | 80 | 1012.4 |